Flag for U.S.A. Weather past 2 weeks in Tucson, Arizona, U.S.A.

Now
74 °F

Clear.


Feels Like: 76 °F
Forecast: 62 / 91 °F
Wind: 7 mph from North

Location: Davis-Monthan Air Force Base


UV Index: 7 (High)

Visibility: 10 mi


Pressure: 29.94 "Hg

Humidity: 26%

Dew point: 37 °F

Location of TucsonLocation

Historic Weather in Tucson

°F

Tucson temperature yesterday

Maximum temperature yesterday: 78 °F (at 4:58 PM)
Minimum temperature yesterday: 59 °F (at 6:58 AM)
Average temperature yesterday: 68 °F

Past Weeks' High & Low Weather Summary

 TemperatureHumidityPressure
High92 °F (Apr 10, 3:58 PM)62% (Apr 20, 5:58 AM)30.09 "Hg (Apr 20, 5:58 AM)
Low46 °F (Apr 6, 5:58 AM)2% (Apr 10, 3:58 PM)29.63 "Hg (Apr 12, 3:58 PM)
Average70 °F18%29.87 "Hg
* Reported Apr 5 7:58 PM — Apr 20 7:58 PM, Tucson, Weather by CustomWeather, © 2014

Note: Actual official high and low records may vary slightly from our data, if they occured in-between our weather recording intervals... More about our weather records

Advertising

Historic Weather Conditions — Data for Previous 24 hours

 ConditionsComfort  
Time TempWeatherWind HumidityBarometerVisibility
7:58 PM
Apr 20
78 °FClear.8 mph23%29.93 "Hg10 mi
6:58 PM81 °FClear.8 mph20%29.90 "Hg10 mi
5:58 PM83 °FSunny.7 mph19%29.90 "Hg10 mi
4:58 PM84 °FSunny.2 mph19%29.91 "Hg10 mi
3:58 PM84 °FSunny.2 mph19%29.90 "Hg10 mi
2:58 PM82 °FSunny.2 mph20%29.92 "Hg10 mi
1:58 PM84 °FSunny.7 mph19%29.94 "Hg10 mi
12:58 PM80 °FSunny.No wind22%29.96 "Hg10 mi
11:58 AM79 °FSunny.3 mph23%29.98 "Hg10 mi
10:58 AM76 °FSunny.5 mph26%30.00 "Hg10 mi
9:58 AM72 °FSunny.1 mph32%30.02 "Hg10 mi
8:58 AM70 °FSunny.1 mph36%30.02 "Hg10 mi
7:58 AM65 °FSunny.5 mph44%30.01 "Hg10 mi
6:58 AM59 °FSunny.7 mph53%30.00 "Hg10 mi
5:58 AM54 °FSunny.8 mph62%29.98 "Hg10 mi
4:58 AM56 °FClear.7 mph59%29.97 "Hg10 mi
3:58 AM55 °FClear.7 mph59%29.97 "Hg10 mi
2:58 AM56 °FClear.8 mph57%29.97 "Hg10 mi
1:58 AM58 °FClear.6 mph54%29.96 "Hg10 mi
12:58 AM61 °FClear.6 mph49%29.97 "Hg10 mi
11:58 PM
Apr 19
62 °FClear.6 mph49%29.97 "Hg10 mi
10:58 PM64 °FClear.8 mph48%29.97 "Hg10 mi
9:58 PM65 °FClear.8 mph49%29.97 "Hg10 mi
Weather by CustomWeather, © 2014

See weather overview